sat.trackr.live / text

‹ back to catalog

STARLINK-4260

NORAD 52986 · 2022-076A

PAYLOAD ACTIVE UNKNOWN

§ Identity

Operator
Country
US
Launch date
2022-07-07
Launch site
AFETR
Launch vehicle
Mass (kg)
RCS (m²)

Purposes: comms

External: N2YO · Heavens-Above · Gunter

§ Orbital elements

Epoch: 2026-09-19T14:11:49.751520Z

Period
93.79 min
Inclination
53.1600°
Eccentricity
0.0001364
Mean motion
15.35400698 rev/d
Perigee alt
458.8 km
Apogee alt
460.7 km
Semi-major
6,837.9 km
B*
8.3442e-5
RAAN
288.2361°
Arg perigee
82.9072°
Mean anomaly
277.2086°
Rev number
23,232

§ Raw data

STARLINK-42601 52986U 22076A   26262.59154805  .00002531  00000+0  83442-4 0  99972 52986  53.1600 288.2361 0001364  82.9072 277.2086 15.35400698232324

JSON: /api/v1/satellites/52986 · /tle

For live sub-satellite position, see the globe view (requires WebGL).

§ Visibility from observer

Set your observer location to see the next 7 days of passes ≥ 10°. The values pass through the URL so the page stays shareable.

No JS? Fill the form by hand. The geolocation button needs JavaScript.